STARLINK-34572, 64720

Orbit data source: Space-Track

STARLINK-34572, 64720 is a payload satellite owned by SpaceX/Seattle (US) in LEO that was launched on Sat, 28 Jun 2025 UTC via an FALCON 9 launch vehicle from the Air Force Western Test Range (AFWTR). Payload-class satellites include a variety of spacecraft equipped with specific instruments for various scientific and technological missions. These include communications satellites like Starlink; space stations such as the ISS; scientific satellites like the Hubble; Earth observation satellites from companies like Planet Labs, Umbra, and HawkEye 360; GPS; miniature CubeSats for education and research; and military/defense satellites.

Loading next visibility...
Identifier
64720, 2025-142AA
Orbit
LEO
Country
Flag of USUS
Related business
Manufacturer
SpaceX/Seattle
Mission
Operational Commercial Communications
Bus & Motor
STARLINK V2MO, Unknown motor
Mass
575 kg wet, ~530 kg dry
Launch date (UTC)
2025-06-28 (1 year ago)
Launch vehicle
FALCON 9
Launch site
Air Force Western Test Range (AFWTR)
Object type
Payload
Rocket body
Debris
Shape & HBR
Box + 1 Pan, 17.7 m
Radar Cross Section
41.120 m², Large (>1 m²)

Expand to show TLE details & history
Last TLE update: 15 hours ago

TLE from 15 hours ago
0 STARLINK-34572
1 64720U 25142AA  26264.16765275  .00011060  00000-0  38863-3 0  9991
2 64720  69.9979 179.1096 0002506 278.0309  82.0582 15.29581393 68998
Epoch: 2026-09-21T04:01Z
TLE epoch observation values (Epoch: 2026-09-21T04:01:25.197Z)
Latitude
-0°
Longitude
118.70325°
Altitude
479.283 km
Speed
7.626 km/s
True Right ascension
11h 56m 26s
True Declination
0° 00' 00"
Sunlit
Object was in daylight at epoch
Visualization orbit readout
Latitude
Unknown
Longitude
Unknown
Altitude
Unknown
Speed
Unknown
Apparent Right ascension
Unknown
Apparent Declination
Unknown
Sunlit
N/A
Visualization observer readout
Local Sidereal Time
11:58:07
Azimuth
Unknown
Elevation
Unknown
Doppler factor
Unknown
Orbital elements
Apogee altitude
476.7 km
Perigee altitude
473.265 km
Semi-major axis
6,853.12 km
Eccentricity
0.00025
Inclination
69.9979°
RAAN
179.1096°
Arg. of periapsis
278.0309°
True anomaly
82.08664°
Mean anomaly
82.0582°
Eccentric anomaly
82.07242°
Mean motion
3.8257 °/min
Orbital period
94.1 mins
BSTAR
0.00038863
Loading maneuver chart data...
Computing Atmospheric mass density...
Loading historical data...
Loading historical data...
Loading historical data...
Loading historical data...
Loading historical data...
Loading historical data...
Loading historical data...

Documentation

Showing up to 5 results
|